[[{"header":{"parameterUnit":"m.s-1","parameterCategory":1,"la1":30.2991,"la2":30.254,"lo1":-89.0895,"lo2":-89.0444,"dy":0.0017,"dx":0.0017,"nx":28,"ny":28,"refTime":"2024-06-30T09:00:00:Z","depth":0,"parameterNumber":2,"parameterNumberName":"U-component_of_WINDS"},"data":[0,0,0,0,0,0,0,0,0,0,0,0,0,0,0,0,0,0,0,0,0,0,0,0,0,0,0,0,0,0,0,0,0,0,0,0,0,0,0,0,0,0,0,0,0,0,0,0,0,0,0,0,0,0,0,0,0,0,5.3959,5.396,0,5.4124,5.4126,5.4128,5.4021,5.4017,5.4012,5.4007,5.4184,5.4193,5.4202,0,0,0,0,0,0,0,0,0,0,0,0,0,5.3555,5.3563,5.3958,5.3961,5.3963,5.4124,5.4126,5.4128,5.4022,5.4016,5.401,5.4005,5.418,5.4191,5.4203,0,0,0,0,0,0,0,0,0,0,0,0,0,5.3727,5.3566,5.3958,5.3929,5.3928,5.4123,5.4126,5.4129,5.4024,5.4016,5.4009,5.4002,5.4177,5.419,5.4204,5.444,0,0,5.4247,5.4253,0,0,0,0,0,0,0,0,5.3717,5.3742,5.3931,5.3931,5.393,5.4044,5.4049,5.4234,5.4026,5.3988,5.4007,5.3998,5.4144,5.416,5.4208,5.4448,5.4456,5.4248,5.4257,5.4263,5.4267,0,0,0,0,0,0,0,5.3706,5.3734,5.4024,5.3934,5.3934,5.3909,5.3925,5.4083,5.4106,5.399,5.3983,5.4004,5.4142,5.4194,5.4211,5.4458,5.4248,5.426,5.4269,5.4274,5.4898,5.4906,0,0,0,0,0,0,5.3695,5.3725,5.4019,5.4029,5.3803,5.3923,5.3941,5.4016,5.4104,5.411,5.401,5.3998,5.4174,5.4195,5.4217,5.4496,5.4263,5.4276,5.4284,5.489,5.49,5.4909,0,0,0,0,0,0,5.3687,5.3722,5.4012,5.3875,5.391,5.3937,5.4022,5.4023,5.4075,5.4118,5.4122,5.4059,5.4169,5.4197,5.4384,5.4501,5.4282,5.4295,5.4881,5.4893,5.4904,5.5059,0,0,0,0,0,0,5.3676,5.372,5.3809,5.3878,5.3918,5.4176,5.403,5.4031,5.4098,5.4084,5.4165,5.4171,5.4165,5.4364,5.4398,5.4517,5.4306,5.487,5.4886,5.4901,5.5044,5.5075,5.5102,0,0,0,0,0,5.3662,5.3848,5.3814,5.385,5.4029,5.4183,5.4206,5.4193,5.4108,5.4198,5.4226,5.4169,5.4483,5.4384,5.4422,5.4546,5.4863,5.4882,5.4899,5.5031,5.5069,5.5101,0,0,0,0,0,0,5.3795,5.3856,5.3819,5.4033,5.4103,5.4164,5.4277,5.4234,5.4332,5.4315,5.4297,5.4317,5.4511,5.4548,5.4436,5.4778,5.466,5.4687,5.4747,5.4783,5.4812,5.4799,5.4317,0,0,0,0,0,5.3848,5.3966,5.4015,5.4198,5.4235,5.4251,5.4317,5.4301,5.4374,5.4404,5.4445,5.452,5.4635,5.4711,5.482,5.5049,5.5064,5.5153,5.5182,5.5206,5.5229,5.5351,5.539,5.4969,5.4969,5.4969,0,0,5.3962,5.401,5.4086,5.4226,5.4279,5.4402,5.4276,5.4413,5.4505,5.4425,5.4603,5.4636,5.4718,5.4927,5.5021,5.4963,5.5349,5.5229,5.5248,5.5258,5.5374,5.5414,5.5449,5.4982,5.4979,5.4977,0,0,5.423,5.4279,5.4436,5.449,5.457,5.4579,5.4617,5.4685,5.4703,5.488,5.4822,5.4932,5.5132,5.5192,5.5249,5.5538,5.5489,5.5575,5.5727,5.5846,5.5879,5.5908,5.601,5.6047,5.5598,5.5598,5.5598,0,5.4361,5.4543,5.4523,5.4663,5.4726,5.4657,5.4817,5.4871,5.4984,5.503,5.4963,5.521,5.5261,5.5481,5.5551,5.56,5.5643,5.5565,5.5875,5.5905,5.5932,5.6028,5.6067,5.5608,5.5607,5.5606,5.5605,0,5.4699,5.4827,5.4944,5.5051,5.5128,5.5278,5.5281,5.5362,5.5339,5.5355,5.5536,5.5594,5.5712,5.5764,5.5744,5.5982,5.5943,5.5877,5.5757,5.5982,5.6072,5.6109,5.5622,5.5618,5.5615,5.5613,0,0,5.5057,5.5149,5.5193,5.5239,5.5321,5.542,5.5567,5.5679,5.5748,5.5828,5.595,5.612,5.6057,5.6122,5.6109,5.6213,5.6437,5.6134,5.6135,5.6187,5.67,5.6748,5.6791,5.6405,5.6412,5.6418,5.6692,0,5.5329,5.5581,5.5567,5.5805,5.5921,5.5856,5.5984,5.6049,5.6068,5.6171,5.6192,5.6312,5.6222,5.626,5.6361,5.6388,5.6539,5.6368,5.6519,5.6524,5.6498,5.6839,5.6891,5.7148,5.6728,5.6734,5.6738,0,5.568,5.5768,5.6017,5.6079,5.6128,5.6242,5.6343,5.6442,5.6515,5.6521,5.6592,5.6561,5.671,5.6587,5.6792,5.6676,5.6736,5.6759,5.6769,5.6782,5.6644,5.686,5.723,5.7267,5.6794,5.679,5.6786,0,5.5914,5.6095,5.6266,5.6309,5.6387,5.6468,5.6505,5.657,5.6638,5.6727,5.6771,5.6878,5.6936,5.702,5.7019,5.693,5.7226,5.7103,5.7235,5.7235,5.73,5.7295,5.7683,5.7342,5.7341,5.734,5.734,0,5.6218,5.6373,5.6372,5.6478,5.6648,5.6631,5.6801,5.6829,5.6887,5.6997,5.695,5.7055,5.7047,5.7154,5.7154,5.7322,5.735,5.7359,5.7357,5.7363,5.7361,5.7401,5.7383,5.7351,5.7348,5.7346,5.7345,0,5.6508,5.6514,5.6696,5.6754,5.6772,5.6895,5.6945,5.7046,5.7059,5.72,5.7232,5.7255,5.7377,5.7384,5.7527,5.7527,5.7731,5.771,5.7705,5.7701,5.7831,5.7818,5.8257,5.8313,5.7937,5.7941,5.7944,0,5.6701,5.6818,5.6887,5.6956,5.6997,5.7109,5.7177,5.7165,5.7238,5.7328,5.7418,5.7535,5.7628,5.7828,5.7858,5.7966,5.7947,5.8093,5.7963,5.7964,5.7947,5.7939,5.795,5.8118,5.8122,5.8126,5.8129,0,5.7043,5.704,5.7138,5.7239,5.732,5.7399,5.7473,5.7533,5.7529,5.7614,5.7737,5.7809,5.7952,5.807,5.8175,5.8214,5.8172,5.8169,5.8205,5.8211,5.8203,5.8207,5.7773,5.8159,5.8156,5.8154,5.8152,5.8151,5.729,5.7389,5.7452,5.7564,5.7617,5.7686,5.7782,5.7806,5.7908,5.8022,5.8009,5.8146,5.8214,5.835,5.8398,5.8505,5.8455,5.8508,5.8521,5.8534,5.8546,5.8187,5.8525,5.8524,5.8523,5.8522,5.8522,0,5.7627,5.7664,5.7767,5.7869,5.7956,5.7906,5.7984,5.8061,5.8181,5.8247,5.8338,5.848,5.8592,5.8631,5.874,5.8819,5.8802,5.8848,5.8841,5.8851,5.8586,5.8543,5.8859,5.8859,5.8859,5.8859,5.8859,5.8859,5.7813,5.7978,5.7982,5.8173,5.8209,5.834,5.8389,5.8452,5.8504,5.8663,5.8755,5.8778,5.8833,5.8946,5.9047,5.9056,5.9098,5.9152,5.9152,5.8904,5.887,5.8837,5.8796,5.9161,5.9162,5.9408,5.941,5.9412]},{"header":{"parameterUnit":"m.s-1","parameterCategory":1,"la1":30.2991,"la2":30.254,"lo1":-89.0895,"lo2":-89.0444,"dy":0.0017,"dx":0.0017,"nx":28,"ny":28,"refTime":"2024-06-30T09:00:00:Z","depth":0,"parameterNumber":3,"parameterNumberName":"V-component_of_WINDS"},"data":[0,0,0,0,0,0,0,0,0,0,0,0,0,0,0,0,0,0,0,0,0,0,0,0,0,0,0,0,0,0,0,0,0,0,0,0,0,0,0,0,0,0,0,0,0,0,0,0,0,0,0,0,0,0,0,0,0,0,1.57,1.5701,0,1.5764,1.5765,1.5766,1.5739,1.5738,1.5736,1.5735,1.5799,1.5802,1.5805,0,0,0,0,0,0,0,0,0,0,0,0,0,1.555,1.5553,1.57,1.5701,1.5701,1.5764,1.5765,1.5766,1.5739,1.5737,1.5736,1.5734,1.5798,1.5802,1.5805,0,0,0,0,0,0,0,0,0,0,0,0,0,1.5615,1.5554,1.57,1.5696,1.5696,1.5764,1.5765,1.5766,1.574,1.5737,1.5735,1.5733,1.5797,1.5801,1.5806,1.5881,0,0,1.582,1.5822,0,0,0,0,0,0,0,0,1.5611,1.5621,1.5696,1.5696,1.5697,1.5741,1.5736,1.5805,1.574,1.5723,1.5735,1.5732,1.5781,1.5787,1.5804,1.5884,1.5887,1.5821,1.5823,1.5826,1.5827,0,0,0,0,0,0,0,1.5607,1.5618,1.5725,1.5697,1.5697,1.569,1.5696,1.5749,1.5764,1.5724,1.5723,1.5731,1.5781,1.58,1.5806,1.5888,1.582,1.5825,1.5828,1.5829,1.603,1.6032,0,0,0,0,0,0,1.5603,1.5614,1.5723,1.5727,1.5648,1.5694,1.5702,1.5729,1.5764,1.5767,1.5733,1.5729,1.5793,1.58,1.5808,1.5897,1.5825,1.583,1.5833,1.6027,1.603,1.6033,0,0,0,0,0,0,1.56,1.5613,1.5721,1.567,1.5683,1.5699,1.573,1.5732,1.575,1.577,1.5772,1.5749,1.5791,1.5801,1.5863,1.5899,1.5832,1.5836,1.6024,1.6028,1.6032,1.6076,0,0,0,0,0,0,1.5596,1.5612,1.5642,1.5671,1.5686,1.5776,1.5733,1.5735,1.5759,1.5755,1.5786,1.5789,1.579,1.5856,1.5867,1.5904,1.584,1.6021,1.6026,1.6031,1.6072,1.6081,1.6089,0,0,0,0,0,1.559,1.5652,1.5643,1.5656,1.5724,1.5778,1.5786,1.5787,1.5762,1.5791,1.5803,1.5788,1.5893,1.5862,1.5875,1.5914,1.6019,1.6025,1.603,1.6068,1.6079,1.6089,0,0,0,0,0,0,1.5626,1.5655,1.5646,1.5719,1.5746,1.5773,1.581,1.58,1.5834,1.5829,1.5828,1.5835,1.5898,1.5912,1.5878,1.5987,1.5952,1.596,1.5976,1.5987,1.5996,1.5991,1.5844,0,0,0,0,0,1.5642,1.5684,1.5707,1.5769,1.5783,1.5794,1.5818,1.5816,1.5844,1.5855,1.5872,1.5899,1.5937,1.5963,1.6,1.6073,1.6079,1.6106,1.6115,1.6122,1.6129,1.6167,1.6179,1.6051,1.6051,1.6051,0,0,1.5676,1.5697,1.5724,1.5777,1.5798,1.584,1.5804,1.5851,1.5882,1.5862,1.5921,1.5934,1.5963,1.6031,1.6061,1.6044,1.6165,1.6129,1.6134,1.6138,1.6174,1.6186,1.6197,1.6055,1.6055,1.6054,0,0,1.5759,1.578,1.5834,1.5855,1.5887,1.5893,1.5906,1.5934,1.5942,1.6001,1.5986,1.6023,1.609,1.6111,1.6131,1.6221,1.6207,1.6233,1.6278,1.6315,1.6325,1.6334,1.6365,1.6376,1.624,1.624,1.624,0,1.5797,1.5862,1.5862,1.591,1.5933,1.5917,1.5969,1.599,1.6032,1.6047,1.6028,1.6111,1.6129,1.6201,1.6222,1.6239,1.6252,1.6229,1.6324,1.6333,1.6341,1.6371,1.6382,1.6243,1.6242,1.6242,1.6242,0,1.5907,1.5951,1.599,1.6031,1.6059,1.6109,1.6115,1.6143,1.6138,1.6147,1.6206,1.6228,1.6268,1.6285,1.6281,1.6355,1.6343,1.6324,1.6288,1.6356,1.6384,1.6395,1.6247,1.6246,1.6245,1.6244,0,0,1.6015,1.6055,1.6069,1.6087,1.612,1.6154,1.6202,1.6242,1.6265,1.6294,1.6333,1.639,1.6372,1.6394,1.6392,1.6425,1.6492,1.6401,1.6402,1.6417,1.6574,1.6588,1.6601,1.6484,1.6486,1.6488,1.6571,0,1.61,1.6187,1.6187,1.6266,1.6307,1.6291,1.6333,1.6357,1.6365,1.64,1.6409,1.6449,1.6422,1.6435,1.6467,1.6478,1.6524,1.6472,1.6519,1.6521,1.6512,1.6615,1.6631,1.6708,1.6582,1.6584,1.6585,0,1.6212,1.6245,1.6328,1.6353,1.637,1.6408,1.6444,1.6477,1.6503,1.6507,1.6531,1.6524,1.6572,1.6535,1.66,1.6564,1.6583,1.6591,1.6594,1.6598,1.6557,1.6622,1.6733,1.6745,1.6602,1.6601,1.6599,0,1.6281,1.6346,1.6404,1.6419,1.6451,1.6478,1.6492,1.6516,1.6539,1.657,1.6584,1.662,1.6639,1.6666,1.6668,1.6641,1.6733,1.6697,1.6737,1.6737,1.6757,1.6755,1.6872,1.677,1.677,1.677,1.677,0,1.6376,1.6428,1.6435,1.6471,1.6527,1.6526,1.6581,1.6593,1.6614,1.665,1.6638,1.6672,1.6673,1.6707,1.6709,1.6762,1.6771,1.6774,1.6774,1.6775,1.6774,1.6787,1.6782,1.6773,1.6772,1.6772,1.6771,0,1.6464,1.6471,1.6533,1.6557,1.6564,1.6605,1.6625,1.6658,1.6665,1.6711,1.6721,1.6732,1.6772,1.6776,1.6822,1.6823,1.6886,1.6881,1.6878,1.6877,1.6916,1.6912,1.7045,1.7062,1.6949,1.695,1.6951,0,1.6524,1.6563,1.6591,1.6615,1.6631,1.6669,1.6693,1.6693,1.6718,1.675,1.6778,1.6817,1.6847,1.6911,1.6922,1.6957,1.6951,1.6996,1.6956,1.6956,1.6951,1.6948,1.6951,1.7003,1.7004,1.7005,1.7006,0,1.6629,1.663,1.6665,1.6701,1.6729,1.6758,1.6784,1.6804,1.6807,1.6835,1.6876,1.6899,1.6946,1.6984,1.7018,1.7031,1.7019,1.7018,1.7029,1.703,1.7027,1.7028,1.6898,1.7015,1.7014,1.7014,1.7013,1.7013,1.6704,1.6737,1.6762,1.6801,1.682,1.6845,1.6877,1.6887,1.6922,1.696,1.6958,1.7002,1.7025,1.7069,1.7085,1.7118,1.7104,1.712,1.7124,1.7127,1.7131,1.7022,1.7125,1.7124,1.7124,1.7124,1.7124,0,1.6807,1.6822,1.6858,1.6895,1.6925,1.6912,1.694,1.6965,1.7005,1.7028,1.7058,1.7104,1.714,1.7153,1.7188,1.7212,1.7207,1.7221,1.7219,1.7222,1.7143,1.7129,1.7224,1.7224,1.7224,1.7224,1.7224,1.7224,1.6865,1.692,1.6924,1.6988,1.7002,1.7046,1.7063,1.7085,1.7103,1.7155,1.7185,1.7194,1.7212,1.7248,1.728,1.7283,1.7296,1.7312,1.7312,1.7238,1.7228,1.7218,1.7206,1.7315,1.7315,1.7389,1.7389,1.739]}]]